When you browse on this site, cookies collect data to enhance your experience and personalize the content and advertising you see.
Visit our Privacy Policy to learn more. By continuing to use the site, you agree to this use of cookies and data.
  • In Czech Republic
  • List of Countries
  • For 7 days
  • Water Temperature
  • Weather Map
  • Weather Widgets
  • user-avatar
    Login

    Hourly Weather Bekren

    Today, 10 April, Friday

    Time Temperature Precipitation Wind Pressure Humidity
    00:00 +5°C° 0.9 mm 3 mps 738 mmHg 94%
    01:00 +4°C° 1.1 mm 3 mps 738 mmHg 93%
    02:00 +3°C° 1.1 mm 4 mps 738 mmHg 91%
    03:00 +1°C° 1.1 mm 4 mps 738 mmHg 90%
    04:00 +1°C° 0.1 mm 4 mps 739 mmHg 87%
    05:00 +1°C° 0.1 mm 4 mps 739 mmHg 84%
    06:00 +1°C° 0.1 mm 4 mps 740 mmHg 81%
    07:00 +1°C° 0 mm 4 mps 740 mmHg 79%
    08:00 +3°C° 0 mm 4 mps 741 mmHg 77%
    09:00 +3°C° 0 mm 4 mps 741 mmHg 74%
    10:00 +4°C° 0.1 mm 4 mps 741 mmHg 71%
    11:00 +3°C° 0.1 mm 5 mps 742 mmHg 67%
    12:00 +5°C° 0.1 mm 5 mps 742 mmHg 63%
    13:00 +5°C° 0.2 mm 5 mps 742 mmHg 62%
    14:00 +5°C° 0.2 mm 4 mps 743 mmHg 60%
    15:00 +5°C° 0.2 mm 4 mps 743 mmHg 58%
    16:00 +4°C° 0.2 mm 4 mps 743 mmHg 59%
    17:00 +4°C° 0.2 mm 4 mps 743 mmHg 61%
    18:00 +3°C° 0.2 mm 3 mps 743 mmHg 63%
    19:00 +2°C° 0.1 mm 3 mps 744 mmHg 70%
    20:00 +2°C° 0.1 mm 2 mps 744 mmHg 77%
    21:00 +2°C° 0.1 mm 2 mps 744 mmHg 85%
    22:00 +1°C° 0.1 mm 2 mps 744 mmHg 86%
    23:00 -1°C° 0.1 mm 2 mps 744 mmHg 87%

    Tomorrow, 11 April, Saturday

    Time Temperature Precipitation Wind Pressure Humidity
    00:00 +1°C° 0.1 mm 1 mps 744 mmHg 88%
    01:00 +1°C° 0 mm 1 mps 744 mmHg 88%
    02:00 0°C° 0 mm 1 mps 745 mmHg 87%
    03:00 0°C° 0 mm 1 mps 745 mmHg 87%
    04:00 -2°C° 0 mm 2 mps 745 mmHg 85%
    05:00 -2°C° 0 mm 2 mps 745 mmHg 84%
    06:00 -2°C° 0 mm 2 mps 745 mmHg 82%
    07:00 -2°C° 0 mm 2 mps 745 mmHg 75%
    08:00 -1°C° 0 mm 3 mps 745 mmHg 68%
    09:00 0°C° 0 mm 3 mps 746 mmHg 60%
    10:00 0°C° 0 mm 3 mps 746 mmHg 56%
    11:00 +1°C° 0 mm 3 mps 746 mmHg 51%
    12:00 +1°C° 0 mm 3 mps 747 mmHg 46%
    13:00 +2°C° 0 mm 3 mps 747 mmHg 46%
    14:00 +2°C° 0 mm 3 mps 747 mmHg 45%
    15:00 +2°C° 0 mm 3 mps 747 mmHg 45%
    16:00 +2°C° 0.2 mm 3 mps 747 mmHg 51%
    17:00 +1°C° 0.2 mm 3 mps 747 mmHg 57%
    18:00 +1°C° 0.2 mm 3 mps 748 mmHg 63%
    19:00 +1°C° 0.1 mm 2 mps 748 mmHg 70%
    20:00 -1°C° 0.1 mm 2 mps 748 mmHg 77%
    21:00 0°C° 0.1 mm 1 mps 748 mmHg 83%
    22:00 -2°C° 0 mm 2 mps 749 mmHg 83%
    23:00 -2°C° 0 mm 2 mps 749 mmHg 82%

    Day after tomorrow, 12 April, Sunday

    Time Temperature Precipitation Wind Pressure Humidity
    00:00 -3°C° 0 mm 2 mps 749 mmHg 82%
    01:00 -3°C° 0 mm 2 mps 749 mmHg 80%
    02:00 -3°C° 0 mm 2 mps 750 mmHg 79%
    03:00 -3°C° 0 mm 2 mps 750 mmHg 77%
    04:00 -3°C° 0 mm 2 mps 750 mmHg 75%
    05:00 -4°C° 0 mm 3 mps 750 mmHg 72%
    06:00 -4°C° 0 mm 3 mps 750 mmHg 69%
    07:00 -2°C° 0 mm 3 mps 750 mmHg 61%
    08:00 -1°C° 0 mm 3 mps 751 mmHg 53%
    09:00 0°C° 0 mm 3 mps 751 mmHg 46%
    10:00 +1°C° 0 mm 3 mps 751 mmHg 42%
    11:00 +1°C° 0 mm 3 mps 750 mmHg 38%
    12:00 +2°C° 0 mm 3 mps 750 mmHg 34%
    13:00 +4°C° 0 mm 2 mps 750 mmHg 34%
    14:00 +4°C° 0 mm 2 mps 750 mmHg 34%
    15:00 +4°C° 0 mm 2 mps 749 mmHg 33%
    16:00 +5°C° 0 mm 1 mps 749 mmHg 37%
    17:00 +4°C° 0 mm 1 mps 749 mmHg 41%
    18:00 +4°C° 0 mm 1 mps 748 mmHg 44%
    19:00 +3°C° 0 mm 1 mps 748 mmHg 48%
    20:00 +1°C° 0 mm 2 mps 748 mmHg 52%
    21:00 -2°C° 0 mm 2 mps 747 mmHg 56%
    22:00 -1°C° 0 mm 3 mps 747 mmHg 56%
    23:00 -1°C° 0 mm 3 mps 746 mmHg 57%

    13 April, Monday

    Time Temperature Precipitation Wind Pressure Humidity
    00:00 -2°C° 0 mm 4 mps 746 mmHg 58%
    01:00 -2°C° 0 mm 4 mps 745 mmHg 62%
    02:00 -2°C° 0 mm 4 mps 744 mmHg 66%
    03:00 -1°C° 0 mm 5 mps 743 mmHg 70%
    04:00 -1°C° 0 mm 5 mps 742 mmHg 77%
    05:00 -1°C° 0 mm 5 mps 741 mmHg 84%
    06:00 -2°C° 0 mm 6 mps 740 mmHg 90%
    07:00 -2°C° 0.5 mm 6 mps 739 mmHg 92%
    08:00 0°C° 0.5 mm 5 mps 738 mmHg 94%
    09:00 +1°C° 0.5 mm 5 mps 738 mmHg 95%
    10:00 +1°C° 0.4 mm 5 mps 737 mmHg 93%
    11:00 +2°C° 0.4 mm 5 mps 737 mmHg 92%
    12:00 +2°C° 0.4 mm 5 mps 736 mmHg 90%
    13:00 +3°C° 0 mm 5 mps 736 mmHg 87%
    14:00 +5°C° 0 mm 5 mps 736 mmHg 85%
    15:00 +6°C° 0 mm 5 mps 736 mmHg 83%
    16:00 +6°C° 0 mm 5 mps 735 mmHg 84%
    17:00 +6°C° 0 mm 5 mps 735 mmHg 85%
    18:00 +6°C° 0 mm 5 mps 735 mmHg 86%
    19:00 +6°C° 0.8 mm 4 mps 734 mmHg 88%
    20:00 +5°C° 0.8 mm 4 mps 734 mmHg 90%
    21:00 +5°C° 0.8 mm 3 mps 734 mmHg 92%
    22:00 +5°C° 0.9 mm 3 mps 734 mmHg 92%
    23:00 +5°C° 0.9 mm 3 mps 733 mmHg 92%

    14 April, Tuesday

    Time Temperature Precipitation Wind Pressure Humidity
    00:00 +5°C° 0.9 mm 4 mps 733 mmHg 92%
    01:00 +6°C° 0.8 mm 4 mps 732 mmHg 91%
    02:00 +6°C° 0.8 mm 4 mps 732 mmHg 90%
    03:00 +6°C° 0.8 mm 4 mps 732 mmHg 89%
    04:00 +4°C° 1.1 mm 4 mps 732 mmHg 90%
    05:00 +3°C° 1.1 mm 4 mps 732 mmHg 92%
    06:00 0°C° 1.1 mm 5 mps 732 mmHg 93%
    07:00 0°C° 0.6 mm 4 mps 733 mmHg 93%
    08:00 -1°C° 0.6 mm 4 mps 733 mmHg 93%
    09:00 -1°C° 0.6 mm 3 mps 734 mmHg 93%
    10:00 0°C° 0.3 mm 3 mps 734 mmHg 93%
    11:00 +1°C° 0.3 mm 2 mps 735 mmHg 93%
    12:00 +2°C° 0.3 mm 2 mps 735 mmHg 92%
    13:00 +1°C° 0.8 mm 2 mps 735 mmHg 94%
    14:00 +2°C° 0.8 mm 1 mps 735 mmHg 95%
    15:00 +2°C° 0.8 mm 1 mps 736 mmHg 96%
    16:00 +2°C° 1.1 mm 1 mps 736 mmHg 97%
    17:00 +1°C° 1.1 mm 2 mps 736 mmHg 98%
    18:00 -1°C° 1.1 mm 2 mps 736 mmHg 98%
    19:00 -1°C° 0.7 mm 2 mps 736 mmHg 98%
    20:00 -1°C° 0.7 mm 2 mps 736 mmHg 98%
    21:00 -1°C° 0.7 mm 3 mps 737 mmHg 98%
    22:00 -1°C° 0.5 mm 3 mps 737 mmHg 98%
    23:00 -1°C° 0.5 mm 3 mps 737 mmHg 97%

    15 April, Wednesday

    Time Temperature Precipitation Wind Pressure Humidity
    00:00 -1°C° 0.5 mm 3 mps 737 mmHg 97%
    01:00 -1°C° 0.1 mm 3 mps 737 mmHg 97%
    02:00 -1°C° 0.1 mm 3 mps 737 mmHg 97%
    03:00 -1°C° 0.1 mm 3 mps 737 mmHg 97%
    04:00 -1°C° 0.4 mm 3 mps 737 mmHg 96%
    05:00 -2°C° 0.4 mm 4 mps 737 mmHg 96%
    06:00 -2°C° 0.4 mm 4 mps 737 mmHg 96%
    07:00 -2°C° 0.2 mm 4 mps 738 mmHg 96%
    08:00 -2°C° 0.2 mm 4 mps 738 mmHg 97%
    09:00 -1°C° 0.2 mm 4 mps 738 mmHg 97%
    10:00 -1°C° 0.4 mm 5 mps 738 mmHg 97%
    11:00 -1°C° 0.4 mm 5 mps 739 mmHg 97%
    12:00 -1°C° 0.4 mm 5 mps 739 mmHg 97%
    13:00 -1°C° 0.3 mm 5 mps 739 mmHg 97%
    14:00 -1°C° 0.3 mm 4 mps 739 mmHg 98%
    15:00 -1°C° 0.3 mm 4 mps 739 mmHg 98%
    16:00 0°C° 0.1 mm 4 mps 739 mmHg 98%
    17:00 0°C° 0.1 mm 4 mps 739 mmHg 98%
    18:00 0°C° 0.1 mm 4 mps 739 mmHg 98%
    19:00 0°C° 0.2 mm 4 mps 739 mmHg 98%
    20:00 +1°C° 0.2 mm 5 mps 739 mmHg 98%
    21:00 +1°C° 0.2 mm 5 mps 739 mmHg 98%
    22:00 +1°C° 0.2 mm 5 mps 739 mmHg 98%
    23:00 +1°C° 0.2 mm 5 mps 739 mmHg 98%
    Show more